Location: Newark
(54.8972°N, 99.8189°W)
Time: 19:33:20
(UTC+00:00)

Transit 2A - Pass Details

Date: 24 November 2019
Orbit: 602 x 957 km, 66.7° (Epoch: 05 December)

Event Time Altitude Azimuth Distance (km) Brightness Sun altitude
Rises 00:58:39 0° 317° (NW) 2,883 9.5 -21.3°
Reaches altitude 10° 01:00:57 10° 322° (NW) 1,962 8.5 -21.6°
Enters shadow 01:05:02 56° 27° (NNE) 722 5.6 -22.2°
